FW9050 Weather Reports


Display with metric or nautical units.
time (UTC)temp
F
wind
direction
speed
MPH
gust
MPH
rain 1hr
in
rain 24hr
in
rain mn
in
humidity
%
barometer
mb
20260504201551 75 313 1.0 9.0 0.00 0.00 0.00 39 1010.3
20260504201048 75 144 5.0 9.0 0.00 0.00 0.00 37 1010.4
20260504200548 75 181 3.0 9.0 0.00 0.00 0.00 38 1010.3
20260504200054 74 255 2.0 8.0 0.00 0.00 0.00 38 1010.4
20260504195548 74 268 3.0 8.0 0.00 0.00 0.00 39 1010.6
20260504195048 75 241 4.0 8.0 0.00 0.00 0.00 37 1010.6
20260504194553 75 122 3.0 9.0 0.00 0.00 0.00 38 1010.6
20260504194051 75 259 4.0 10.0 0.00 0.00 0.00 36 1010.8
20260504193548 76 205 5.0 10.0 0.00 0.00 0.00 36 1010.9
20260504193054 76 190 3.0 7.0 0.00 0.00 0.00 37 1010.9
20260504192547 77 113 3.0 7.0 0.00 0.00 0.00 35 1011.0
20260504192050 76 141 3.0 7.0 0.00 0.00 0.00 38 1011.2
20260504191600 75 150 2.0 7.0 0.00 0.00 0.00 41 1011.2
20260504191050 75 205 2.0 12.0 0.00 0.00 0.00 38 1011.4
20260504190548 75 153 5.0 12.0 0.00 0.00 0.00 37 1011.4
20260504190055 76 258 3.0 11.0 0.00 0.00 0.00 37 1011.4
20260504185548 76 259 1.0 6.0 0.00 0.00 0.00 40 1011.7
20260504185048 76 271 3.0 6.0 0.00 0.00 0.00 37 1011.7
20260504184556 76 271 2.0 6.0 0.00 0.00 0.00 38 1011.8
20260504184048 75 149 2.0 10.0 0.00 0.00 0.00 36 1011.8
20260504183548 74 170 4.0 10.0 0.00 0.00 0.00 38 1012.0
20260504183100 75 118 5.0 11.0 0.00 0.00 0.00 38 1012.0
20260504182549 74 217 3.0 11.0 0.00 0.00 0.00 37 1012.1
20260504182047 74 233 3.0 11.0 0.00 0.00 0.00 35 1012.2
20260504181551 74 228 3.0 9.0 0.00 0.00 0.00 39 1012.3
20260504181051 74 185 2.0 9.0 0.00 0.00 0.00 37 1012.1
20260504180552 74 86 2.0 9.0 0.00 0.00 0.00 38 1012.2
20260504180109 73 140 2.0 8.0 0.00 0.00 0.00 39 1012.3
20260504175548 74 138 3.0 10.0 0.00 0.00 0.00 36 1012.4
20260504175052 73 242 2.0 10.0 0.00 0.00 0.00 40 1012.5
20260504174551 73 231 3.0 8.0 0.00 0.00 0.00 38 1012.5
20260504174050 73 157 3.0 8.0 0.00 0.00 0.00 38 1012.7
20260504173548 73 212 2.0 8.0 0.00 0.00 0.00 39 1012.7
20260504173105 73 122 3.0 8.0 0.00 0.00 0.00 37 1012.9
20260504172548 73 274 2.0 8.0 0.00 0.00 0.00 37 1012.7
20260504172047 73 255 3.0 8.0 0.00 0.00 0.00 38 1012.9
20260504171556 72 165 3.0 8.0 0.00 0.00 0.00 38 1012.8
20260504171049 73 209 3.0 7.0 0.00 0.00 0.00 39 1013.0
20260504170551 73 192 3.0 7.0 0.00 0.00 0.00 35 1012.9
20260504151048 67 139 2.0 8.0 0.00 0.00 0.00 41 1014.0
20260504150548 67 275 2.0 8.0 0.00 0.00 0.00 40 1014.2
20260504141048 65 254 1.0 5.0 0.00 0.00 0.00 43 1014.1
20260504140549 64 163 1.0 5.0 0.00 0.00 0.00 51 1014.2
20260504140110 63 215 2.0 5.0 0.00 0.00 0.00 51 1014.3
20260504130548 59 231 1.0 5.0 0.00 0.00 0.00 55 1014.5
20260504110551 48 201 1.0 2.0 0.00 0.00 0.00 68 1015.2
20260504100550 49 145 1.0 3.0 0.00 0.00 0.00 67 1014.9
20260504081557 50 0 0.0 1.0 0.00 0.00 0.00 61 1015.4
20260504081049 50 0 0.0 2.0 0.00 0.00 0.00 61 1015.4
20260504080554 49 149 0.0 2.0 0.00 0.00 0.00 59 1015.4
20260504050550 48 132 0.0 1.0 0.00 0.00 0.00 56 1015.9
20260504050106 48 149 0.0 1.0 0.00 0.00 0.00 55 1015.7
20260504045548 48 148 0.0 0.0 0.00 0.00 0.00 55 1015.7
20260504045051 49 0 0.0 2.0 0.00 0.00 0.00 54 1015.7
20260504044554 49 0 0.0 2.0 0.00 0.00 0.00 53 1015.7
20260504044048 49 0 1.0 2.0 0.00 0.00 0.00 53 1015.7
20260504043548 49 167 0.0 2.0 0.00 0.00 0.00 53 1015.7
20260504043058 49 0 0.0 2.0 0.00 0.00 0.00 53 1015.7
20260504042548 48 155 0.0 2.0 0.00 0.00 0.00 53 1015.8
20260504042050 48 172 0.0 2.0 0.00 0.00 0.00 54 1015.8
20260504041550 48 0 0.0 2.0 0.00 0.00 0.00 55 1015.7
20260504041050 48 186 0.0 1.0 0.00 0.00 0.00 54 1015.7
20260504040550 49 186 0.0 2.0 0.00 0.00 0.00 54 1015.7
20260504035551 49 231 0.0 2.0 0.00 0.00 0.00 54 1015.8
20260504035049 49 170 0.0 2.0 0.00 0.00 0.00 53 1015.7
20260504034611 49 143 1.0 2.0 0.00 0.00 0.00 53 1015.7
20260504034053 49 127 1.0 2.0 0.00 0.00 0.00 53 1015.7
20260504033550 49 160 0.0 2.0 0.00 0.00 0.00 53 1015.6
20260504033050 50 167 0.0 2.0 0.00 0.00 0.00 52 1015.5
20260504032551 50 151 0.0 2.0 0.00 0.00 0.00 51 1015.6
20260504032049 50 214 1.0 2.0 0.00 0.00 0.00 51 1015.5
20260504031555 49 150 1.0 2.0 0.00 0.00 0.00 52 1015.5
20260504031050 48 162 1.0 2.0 0.00 0.00 0.00 53 1015.4
20260504030554 48 201 0.0 1.0 0.00 0.00 0.00 55 1015.4
20260504030053 47 225 1.0 1.0 0.00 0.00 0.00 58 1015.4
20260504025550 47 213 0.0 1.0 0.00 0.00 0.00 59 1015.3
20260504025050 48 0 0.0 2.0 0.00 0.00 0.00 56 1015.2
20260504024554 48 213 0.0 2.0 0.00 0.00 0.00 54 1015.3
20260504024050 48 212 0.0 1.0 0.00 0.00 0.00 54 1015.4
20260504023548 48 229 0.0 1.0 0.00 0.00 0.00 56 1015.3
20260504023053 48 229 0.0 1.0 0.00 0.00 0.00 56 1015.3
20260504022548 48 229 0.0 1.0 0.00 0.00 0.00 56 1015.4
20260504022051 48 0 0.0 1.0 0.00 0.00 0.00 58 1015.3
20260504021553 49 229 0.0 1.0 0.00 0.00 0.00 55 1015.4
20260504021052 49 222 1.0 1.0 0.00 0.00 0.00 54 1015.4
20260504020554 49 222 0.0 1.0 0.00 0.00 0.00 55 1015.4
20260504020115 49 222 0.0 1.0 0.00 0.00 0.00 54 1015.3
20260504015552 49 0 0.0 1.0 0.00 0.00 0.00 54 1015.2
20260504015051 49 222 0.0 1.0 0.00 0.00 0.00 52 1015.1
20260504014601 49 0 0.0 1.0 0.00 0.00 0.00 52 1015.0
20260504014051 49 0 0.0 1.0 0.00 0.00 0.00 57 1015.1
20260504013548 49 212 0.0 1.0 0.00 0.00 0.00 56 1015.2
20260504013111 49 0 1.0 1.0 0.00 0.00 0.00 57 1015.1
20260504012549 49 212 0.0 1.0 0.00 0.00 0.00 55 1015.0
20260504012048 50 194 0.0 1.0 0.00 0.00 0.00 55 1015.0
20260504011554 50 194 0.0 1.0 0.00 0.00 0.00 52 1015.0
20260504011050 50 0 0.0 1.0 0.00 0.00 0.00 52 1015.0
20260504010550 50 192 0.0 1.0 0.00 0.00 0.00 50 1015.0
20260504010057 50 0 0.0 1.0 0.00 0.00 0.00 52 1015.0
20260504005549 50 0 0.0 0.0 0.00 0.00 0.00 54 1015.0
20260504005048 51 0 0.0 1.0 0.00 0.00 0.00 54 1014.9
20260504004552 51 0 0.0 1.0 0.00 0.00 0.00 51 1014.8
20260504004051 51 199 0.0 1.0 0.00 0.00 0.00 49 1014.8
20260504003550 51 0 0.0 1.0 0.00 0.00 0.00 49 1014.8
20260504003053 52 0 0.0 1.0 0.00 0.00 0.00 49 1014.8
20260504002550 52 0 0.0 1.0 0.00 0.00 0.00 49 1014.6
20260504002050 52 276 0.0 1.0 0.00 0.00 0.00 49 1014.6
20260504001556 53 276 0.0 1.0 0.00 0.00 0.00 50 1014.5
20260504001050 53 276 0.0 1.0 0.00 0.00 0.00 48 1014.5
20260504000549 54 276 0.0 1.0 0.00 0.00 0.00 46 1014.5
20260504000053 55 276 0.0 1.0 0.00 0.00 0.00 46 1014.5
20260503235551 55 0 0.0 1.0 0.00 0.00 0.00 44 1014.6
20260503235048 56 0 0.0 0.0 0.00 0.00 0.00 42 1014.5
20260503234555 57 0 0.0 1.0 0.00 0.00 0.00 41 1014.4
20260503234049 58 0 0.0 2.0 0.00 0.00 0.00 39 1014.4
20260503233550 59 278 1.0 3.0 0.00 0.00 0.00 38 1014.3
20260503233052 60 275 1.0 3.0 0.00 0.00 0.00 37 1014.2
20260503232550 61 297 1.0 3.0 0.00 0.00 0.00 35 1014.3
20260503232047 62 297 1.0 2.0 0.00 0.00 0.00 37 1014.2
20260503231552 61 291 1.0 4.0 0.00 0.00 0.00 36 1014.1
20260503231048 61 291 0.0 5.0 0.00 0.00 0.00 37 1014.1
20260503230552 61 274 1.0 5.0 0.00 0.00 0.00 35 1014.1
20260503230053 60 131 0.0 5.0 0.00 0.00 0.00 34 1014.1
20260503225548 60 0 1.0 4.0 0.00 0.00 0.00 38 1014.1
20260503225048 60 296 1.0 4.0 0.00 0.00 0.00 36 1014.2
20260503224601 60 286 2.0 5.0 0.00 0.00 0.00 36 1014.2
20260503224048 60 264 2.0 5.0 0.00 0.00 0.00 35 1014.2
20260503223601 60 309 2.0 8.0 0.00 0.00 0.00 35 1014.1
20260503223448 60 288 0.0 8.0 0.00 0.00 0.00 38 1014.2
20260503222053 60 238 2.0 4.0 0.00 0.00 0.00 36 1014.1
20260503221601 60 300 1.0 4.0 0.00 0.00 0.00 36 1014.1
20260503221053 60 308 1.0 5.0 0.00 0.00 0.00 37 1014.1
20260503220551 60 302 2.0 7.0 0.00 0.00 0.00 36 1014.0
20260503220054 60 311 2.0 8.0 0.00 0.00 0.00 36 1014.0
20260503215550 60 293 4.0 10.0 0.00 0.00 0.00 34 1014.2
20260503215051 61 300 4.0 11.0 0.00 0.00 0.00 35 1014.2
20260503214553 61 181 3.0 11.0 0.00 0.00 0.00 33 1014.2
20260503214054 60 284 1.0 6.0 0.00 0.00 0.00 35 1014.2
20260503213550 60 309 3.0 7.0 0.00 0.00 0.00 37 1014.2
20260503213053 60 276 2.0 7.0 0.00 0.00 0.00 36 1014.2
20260503212551 60 282 2.0 6.0 0.00 0.00 0.00 35 1014.3
20260503212050 60 316 1.0 8.0 0.00 0.00 0.00 36 1014.1
20260503211559 60 248 2.0 8.0 0.00 0.00 0.00 38 1014.1
20260503211053 60 297 3.0 9.0 0.00 0.00 0.00 36 1014.2
20260503210548 60 323 3.0 9.0 0.00 0.00 0.00 34 1014.2
20260503210054 60 308 4.0 9.0 0.00 0.00 0.00 35 1014.2
20260503205549 60 316 4.0 9.0 0.00 0.00 0.00 33 1014.2
20260503205051 60 309 4.0 9.0 0.00 0.00 0.00 36 1014.3
20260503204616 59 288 2.0 9.0 0.00 0.00 0.00 36 1014.2
20260503204051 59 283 2.0 7.0 0.00 0.00 0.00 37 1014.2
20260503203550 59 296 2.0 7.0 0.00 0.00 0.00 34 1014.2
20260503203102 59 266 4.0 9.0 0.00 0.00 0.00 36 1014.3
20260503202553 59 293 4.0 9.0 0.00 0.00 0.00 38 1014.3
20260503202049 60 269 3.0 15.0 0.00 0.00 0.00 35 1014.4